Location: Unspecified
(52.4292°N, 19.3359°E)
Time: 14:50:00
(UTC+01:00)

A-11 Canister half - Pass Details

Date: 14 October 2025
Orbit: 1526 x 1682 km, 47.3° (Epoch: 13 November)

Event Time Altitude Azimuth Distance (km) Brightness Sun altitude
Exits shadow 03:40:22 35° 174° (S) 2,286 9.6 -31.2°
Maximum altitude 03:42:30 39° 147° (SSE) 2,151 9.7 -30.9°
Drops below altitude 10° 03:50:50 10° 83° (E) 3,705 11.8 -29.8°
Sets 03:54:07 0° 76° (ENE) 4,700 12.7 -29.3°
